Погода в Бирюче

Россия / Воронежская область     51°20′43″N   40°42′22″E
темп.,
°C
ветер,
м/с
пор.,
м/с
влажн.,
%
обл.,
%
осадки,
мм/ч
давл.,
гПа
погр.,
м
18 апреля, вс
вс1800:00+6зюз33825 0.0 102033
03:00+5юз22835 0.0 102025
06:00+4ююз33825 0.0 102046
09:00+10ю355667 0.0 1019829
12:00+12юз4549100 0.0 10191855
15:00+13юз344894 0.0 10191659
18:00+12юв235441 0.0 1018140
21:00+8вюв226280 0.0 101917
19 апреля, пн
пн1900:00+7юв3367100 0.0 101830
03:00+8ююв3365100 0.0 101728
06:00+7зсз237666 0.0 101872
09:00+11св326391 0.1 1017492
12:00+15ююв344295 0.0 10162266
15:00+15ююз2338100 0.0 10161736
18:00+14вюв224977 0.0 101532
21:00+11юв356790 0.0 101679
20 апреля, вт
вт2000:00+9вюв498125 0.1 1016210
03:00+8вюв41090100 0.1 1017282
06:00+9в6129369 0.0 1016551
09:00+9в81488100 0.3 1014854
12:00+8в101787100 0.3 1012854
15:00+7в112093100 6.1 1009892
18:00+8вюв142492100 4.6 10051063
21:00+9вюв132490100 12.0 10041141
21 апреля, ср
ср2100:00+11юв9169121 0.9 1004664
03:00+9ю81681100 1.9 1005936
06:00+9ююв91584100 0.1 10051173
09:00+9ю81390100 0.3 10071328
12:00+8зюз71181100 0.8 10121057
15:00+11юз697277 0.9 10141203
18:00+10зюз4773100 0.4 1016664
21:00+7юз358496 0.4 101983
22 апреля, чт
чт2200:00+7ююз368691 0.0 1020216
03:00+5юз3690100 0.0 1021138
06:00+5юз358687 0.0 1023114
09:00+9юз3463100 0.0 1024659
12:00+10зюз335369 0.0 10251278
15:00+13юз234454 0.0 10251812
18:00+13ю12515 0.0 102579
21:00+8вюв226277 0.0 102619